CAPE
3064 2922 2585 1908 2980 2854 2090 2586 2280 1885 1936 1643 961 953 931 989 1432 1521 1500 1290 1272 1129 1071 917 606 712 708 410 271 189 111 14 0 10 49 225 239 271 250 197 154 104 2
3238 3117 3074 2830 2751 2993 3225 2680 2392 2357 1984 1805 907 919 1215 1549 1638 1450 1514 1437 1283 1177 1084 871 533 535 466 319 133 97 99 47 70 20 71 199 242 170 184 127 87 25 0
3535 3342 3456 3363 2594 3224 2963 3419 2766 2695 2467 2301 1187 1271 1587 1715 1627 1601 1626 1266 1187 1158 977 938 665 595 447 325 274 242 171 107 164 132 143 279 269 261 202 113 66 0 2
3235 2861 2333 2045 2105 2306 2559 2624 3080 2558 2193 2116 1929 2087 1629 1535 1598 1592 1573 1346 1076 963 909 811 700 700 777 606 453 366 325 294 315 408 332 279 205 264 422 302 138 0 2
1396 1128 1377 1534 1563 1713 1560 1421 1102 1890 2090 1991 2100 2261 1902 1265 1478 1283 1151 1151 938 847 853 749 734 658 657 777 881 842 705 644 650 603 516 353 176 507 153 116 2 0 0
765 844 1286 1340 1252 1408 1380 818 225 2 1360 2025 2048 2223 1531 1231 1030 1252 1065 1038 936 672 553 662 636 742 746 669 651 486 480 432 419 421 418 315 194 44 14 0 6 29 2
254 254 414 641 909 1126 877 778 622 176 115 1874 2160 1835 1246 1109 900 852 1029 765 705 708 659 720 598 618 522 573 667 642 560 320 182 199 173 185 186 143 0 0 0 1 79
395 280 69 0 14 7 39 18 58 10 48 672 1378 1437 1012 1024 881 643 540 612 635 647 700 656 613 532 307 363 401 435 300 264 183 107 156 208 206 140 101 137 106 0 10
271 430 216 171 46 0 0 0 2 0 8 296 864 686 1078 1202 949 680 368 215 145 154 297 300 325 411 235 331 348 273 170 127 35 0 0 5 268 177 179 113 48 0 1
22 42 125 319 222 68 4 7 39 459 710 528 455 124 613 987 881 812 674 444 236 127 168 210 243 265 236 320 204 312 263 142 48 55 1 0 0 1 79 119 7 0 1
30 27 3 27 8 0 2 114 179 317 421 436 73 114 346 533 565 575 496 554 626 603 429 334 315 378 273 211 185 239 218 170 121 127 57 32 10 0 10 11 0 0 0
0 0 0 0 0 0 0 0 1 0 28 154 278 300 126 69 31 76 432 559 665 757 688 451 642 466 336 324 269 234 145 196 172 59 28 16 1 1 0 0 5 0 0
0 0 0 0 5 0 0 0 0 0 0 0 1 5 30 17 3 76 449 462 517 454 322 261 179 133 115 110 103 150 159 115 94 151 72 48 79 46 64 12 0 0 0
0 0 0 0 0 27 0 0 0 0 13 3 0 7 30 58 68 83 40 28 2 0 6 8 40 62 34 18 9 16 19 10 42 65 85 72 51 64 92 115 31 2 2
0 0 0 0 0 0 5 0 2 0 0 0 1 1 1 0 0 0 0 0 0 0 0 0 0 0 11 31 17 10 2 0 0 0 9 39 49 76 63 97 106 71 20
0 0 0 0 0 0 0 0 0 0 0 0 0 0 0 0 0 0 0 0 0 0 0 0 0 0 0 3 10 11 0 0 0 0 0 0 0 39 37 95 112 81 73
0 0 0 0 0 0 0 0 0 0 0 14 8 0 0 0 0 0 0 0 0 0 2 0 0 15 17 7 14 1 0 5 7 0 4 6 1 14 3 15 75 64 66
0 0 0 0 0 0 0 0 0 0 0 1 23 7 8 0 0 0 0 0 0 3 3 10 15 31 8 23 12 26 39 25 32 16 5 28 27 19 9 21 16 7 10
0 0 0 0 0 0 0 0 0 0 0 3 41 25 32 15 0 0 0 0 0 1 0 1 2 3 7 4 4 29 42 53 72 67 107 71 50 56 17 46 24 20 4
0 0 0 0 0 0 1 3 1 6 8 46 80 64 42 12 12 0 0 0 0 0 0 0 0 1 0 1 11 29 32 41 15 20 23 86 24 42 29 33 18 2 1
0 3 2 13 11 30 14 20 47 68 116 61 60 47 28 13 0 0 0 0 0 0 0 0 0 0 0 2 17 93 49 49 52 26 28 34 31 19 19 44 28 48 23
0 0 0 1 1 1 0 20 45 50 140 116 50 22 3 0 0 0 0 0 0 0 3 0 0 2 2 2 0 0 0 3 8 12 0 12 20 14 12 0 2 3 4
0 1 5 2 0 3 4 14 10 7 28 76 57 30 5 0 0 0 0 0 0 0 0 3 1 7 13 12 11 4 2 9 10 16 4 5 0 1 4 3 4 0 0
0 0 7 4 5 6 0 0 2 0 0 28 50 44 26 23 0 0 0 0 0 0 0 0 0 0 3 0 1 0 0 0 1 5 18 3 0 0 0 0 0 13 1
0 0 2 0 0 2 1 0 0 0 0 0 75 55 69 25 21 2 0 1 4 0 0 0 0 0 0 0 0 0 0 10 16 3 2 1 17 10 2 14 20 13 0
0 0 0 0 5 11 16 16 12 9 3 20 74 30 45 46 39 51 30 86 11 0 0 0 0 0 0 0 0 0 0 5 10 4 7 24 28 30 40 33 1 0 0
CIN
-149 -111 -97 -133 -20 -23 -49 -27 -25 -80 -40 -49 -98 -166 -136 -100 -29 -10 -4 -5 -3 -3 -8 -10 -12 -18 -10 -29 -21 -18 -25 -78 -0 -18 -24 -20 -23 -33 -28 -31 -34 -23 -10
-103 -38 -13 -22 -13 -7 -5 -46 -27 -67 -47 -29 -181 -154 -92 -32 -11 -15 -9 -4 -2 -1 -4 -8 -43 -38 -28 -46 -86 -45 -16 -101 -67 -58 -18 -28 -27 -31 -20 -7 -30 -33 -0
-3 -15 -1 -1 -31 -13 -10 -9 -59 -28 -27 -16 -162 -130 -72 -34 -18 -21 -10 -13 -9 -5 -3 -6 -28 -44 -59 -85 -66 -46 -32 -33 -24 -35 -44 -23 -26 -20 -22 -10 -11 -0 -2
-7 -3 -13 -7 -0 -0 -3 -5 -20 -30 -35 -21 -55 -35 -40 -29 -30 -17 -8 -8 -32 -11 -5 -14 -33 -29 -19 -23 -61 -57 -38 -29 -21 -17 -23 -5 -8 -0 -0 -0 -2 -0 -0
-42 -56 -33 -3 -1 -0 -0 -0 -0 -11 -36 -32 -40 -12 -12 -36 -42 -46 -42 -19 -66 -60 -21 -28 -43 -46 -35 -18 -8 -7 -11 -7 -2 -1 -0 -0 -9 -0 -4 -7 -0 -0 -1
-19 -6 -1 -2 -0 -1 -0 -3 -11 -1 -1 -36 -28 -3 -11 -20 -41 -44 -60 -59 -48 -68 -74 -63 -37 -37 -27 -24 -35 -40 -45 -50 -41 -27 -7 -18 -39 -52 -56 -0 -3 -70 -0
-27 -26 -92 -27 -21 -2 -3 -0 -0 -11 -3 -8 -4 -4 -38 -39 -69 -62 -47 -69 -54 -52 -44 -33 -52 -59 -57 -49 -24 -13 -24 -39 -56 -64 -74 -80 -59 -27 -0 -0 -0 -0 -53
-5 -14 -92 -0 -30 -40 -74 -24 -25 -85 -0 -0 -4 -7 -19 -50 -55 -63 -30 -55 -57 -26 -36 -31 -32 -28 -67 -62 -43 -22 -37 -40 -27 -31 -58 -38 -31 -24 -44 -21 -20 -0 -149
-11 -1 -88 -136 -204 -0 -0 -69 -1 -1 -4 -73 -33 -24 -7 -10 -3 -13 -34 -76 -104 -161 -119 -69 -82 -30 -74 -42 -25 -17 -12 -36 -40 -0 -0 -3 -5 -22 -13 -22 -43 -0 -0
-108 -63 -135 -37 -74 -124 -5 -12 -35 -0 -34 -43 -39 -65 -1 -6 -3 -9 -19 -26 -58 -152 -116 -115 -54 -39 -45 -23 -12 -18 -9 -33 -38 -73 -6 -0 -0 -7 -42 -24 -9 -0 -0
-226 -232 -85 -260 -59 -0 -62 -23 -25 -38 -45 -39 -16 -2 -0 -0 -1 -8 -24 -16 -25 -13 -22 -53 -40 -21 -12 -5 -17 -9 -8 -12 -22 -17 -22 -47 -21 -0 -79 -57 -0 -0 -0
-0 -0 -0 -0 -0 -0 -0 -0 -223 -0 -56 -44 -13 -2 -13 -28 -54 -0 -0 -3 -0 -0 -3 -8 -0 -1 -28 -9 -11 -14 -16 -20 -20 -8 -11 -8 -0 -1 -0 -0 -77 -0 -0
-0 -0 -0 -0 -51 -0 -0 -0 -0 -0 -0 -0 -10 -13 -17 -80 -55 -2 -0 -1 -0 -3 -6 -64 -24 -31 -24 -28 -16 -1 -0 -11 -14 -28 -16 -55 -33 -30 -18 -4 -0 -0 -0
-0 -0 -0 -0 -0 -23 -0 -0 -0 -0 -35 -12 -0 -1 -8 -53 -49 -19 -68 -68 -123 -0 -158 -137 -136 -87 -62 -6 -11 -17 -16 -4 -3 -8 -4 -50 -18 -16 -5 -7 -18 -4 -0
-0 -0 -0 -0 -0 -0 -7 -0 -7 -0 -0 -0 -0 -0 -0 -0 -0 -0 -0 -0 -0 -0 -0 -0 -0 -0 -1 -5 -9 -6 -16 -0 -0 -0 -0 -0 -0 -2 -7 -4 -4 -10 -26
-0 -0 -0 -0 -0 -0 -0 -0 -0 -0 -1 -0 -0 -0 -0 -4 -0 -0 -0 -0 -0 -0 -0 -0 -0 -0 -0 -1 -5 -1 -0 -0 -0 -0 -0 -0 -0 -0 -1 -7 -3 -1 -8
-0 -0 -0 -0 -0 -0 -0 -0 -0 -0 -0 -21 -16 -0 -0 -0 -0 -0 -0 -0 -0 -0 -0 -0 -0 -0 -1 -0 -0 -0 -0 -2 -46 -0 -0 -0 -0 -0 -0 -1 -3 -0 -3
-0 -0 -0 -0 -0 -0 -0 -0 -0 -0 -0 -22 -12 -32 -38 -0 -0 -0 -0 -0 -0 -0 -0 -0 -0 -0 -0 -0 -0 -0 -0 -12 -14 -17 -4 -8 -1 -9 -17 -5 -2 -19 -19
-0 -0 -0 -0 -0 -0 -0 -0 -0 -0 -21 -9 -62 -16 -83 -27 -0 -0 -0 -0 -0 -0 -0 -0 -0 -0 -0 -1 -1 -1 -0 -0 -0 -0 -0 -0 -0 -0 -3 -1 -14 -7 -19
-0 -0 -1 -0 -0 -0 -5 -7 -29 -28 -17 -53 -47 -15 -7 -71 -121 -0 -0 -0 -0 -0 -0 -0 -0 -0 -0 -6 -16 -5 -0 -0 -1 -3 -0 -0 -0 -0 -0 -0 -0 -0 -6
-0 -2 -7 -16 -1 -28 -0 -21 -17 -29 -23 -29 -8 -4 -5 -10 -0 -0 -0 -0 -0 -0 -0 -0 -0 -0 -0 -0 -12 -0 -1 -3 -2 -4 -13 -8 -7 -27 -7 -0 -0 -0 -3
-0 -0 -0 -10 -12 -3 -0 -20 -29 -18 -11 -9 -11 -16 -14 -0 -0 -0 -0 -0 -0 -0 -0 -0 -0 -0 -0 -0 -0 -0 -0 -22 -7 -16 -0 -11 -3 -7 -6 -0 -0 -0 -0
-0 -3 -21 -20 -0 -6 -10 -24 -15 -24 -11 -0 -3 -7 -11 -0 -0 -0 -0 -0 -0 -0 -0 -5 -13 -1 -0 -0 -0 -2 -6 -0 -0 -2 -4 -0 -0 -0 -0 -0 -0 -0 -0
-0 -0 -9 -9 -23 -18 -0 -0 -6 -2 -0 -29 -12 -1 -0 -1 -0 -0 -0 -0 -0 -0 -0 -0 -0 -0 -38 -0 -10 -0 -0 -0 -18 -10 -3 -13 -0 -0 -0 -0 -0 -3 -0
-0 -0 -7 -0 -0 -17 -8 -0 -0 -0 -0 -0 -8 -4 -3 -5 -0 -13 -1 -1 -0 -0 -0 -0 -0 -0 -0 -0 -0 -0 -0 -13 -9 -21 -19 -0 -16 -20 -19 -5 -4 -2 -0
-0 -0 -0 -0 -9 -14 -18 -25 -22 -42 -40 -45 -11 -22 -7 -4 -4 -11 -10 -3 -5 -1 -0 -0 -0 -0 -0 -0 -0 -0 -0 -5 -4 -1 -1 -4 -10 -6 -7 -5 -1 -0 -0
Wind_Speed
21 23 25 21 27 29 23 25 30 26 29 27 21 18 15 12 12 14 15 14 13 13 11 11 12 17 21 24 23 29 32 nan nan nan nan 25 32 29 26 32 31 31 nan
28 30 28 33 33 30 27 26 31 30 29 27 24 20 17 15 13 12 14 15 15 15 14 13 14 18 20 19 21 nan nan nan nan nan nan 17 23 25 28 36 nan nan nan
40 39 38 37 34 33 27 33 34 36 34 28 24 19 19 20 18 15 14 11 12 14 16 17 15 17 18 20 19 18 16 16 16 13 15 19 22 24 29 25 nan nan nan
42 45 51 52 55 49 43 40 34 37 37 30 23 20 20 21 19 16 15 11 12 8 10 13 14 14 16 18 21 20 18 16 16 15 17 20 21 20 22 22 21 nan nan
57 54 53 54 51 55 52 44 55 30 37 35 26 24 23 22 22 17 18 11 14 13 11 9 13 17 15 14 19 20 22 21 19 18 18 21 21 20 21 22 nan nan nan
48 42 54 51 51 52 51 61 51 nan 42 33 30 29 26 25 24 22 21 17 15 16 14 13 12 18 20 16 16 21 24 24 22 23 20 22 23 nan nan nan nan nan nan
54 42 36 40 48 55 54 55 65 64 31 33 33 33 30 27 24 22 22 19 17 18 21 16 12 15 17 20 17 21 21 25 28 22 21 23 25 25 nan nan nan nan nan
49 37 nan nan nan nan nan nan nan nan nan 44 34 30 25 27 30 28 24 24 22 16 20 20 21 18 20 23 23 19 20 22 21 21 21 22 24 28 27 25 24 nan nan
41 35 29 37 nan nan nan nan nan nan nan 25 42 43 30 31 31 28 28 26 22 17 18 19 20 21 24 27 25 25 21 20 nan nan nan nan 23 31 32 32 nan nan nan
nan nan 27 27 25 nan nan nan nan 24 25 17 40 33 36 30 29 27 29 31 23 22 19 21 20 24 25 29 28 24 22 24 nan nan nan nan nan nan nan 34 nan nan nan
nan nan nan nan nan nan nan 17 15 23 26 27 nan 23 22 27 27 26 24 29 28 27 25 27 27 25 23 23 25 27 23 24 22 26 nan nan nan nan nan nan nan nan nan
nan nan nan nan nan nan nan nan nan nan nan 28 24 24 26 nan nan nan 35 34 35 37 35 32 33 33 36 29 25 20 19 19 22 nan nan nan nan nan nan nan nan nan nan
nan nan nan nan nan nan nan nan nan nan nan nan nan nan nan nan nan nan 39 46 39 41 31 32 29 28 26 24 19 15 22 23 nan 23 nan nan nan nan nan nan nan nan nan
nan nan nan nan nan nan nan nan nan nan nan nan nan nan nan nan nan nan nan nan nan nan nan nan nan nan nan nan nan nan nan nan nan nan nan nan nan nan nan 39 nan nan nan
nan nan nan nan nan nan nan nan nan nan nan nan nan nan nan nan nan nan nan nan nan nan nan nan nan nan nan nan nan nan nan nan nan nan nan nan nan nan nan nan 32 nan nan
nan nan nan nan nan nan nan nan nan nan nan nan nan nan nan nan nan nan nan nan nan nan nan nan nan nan nan nan nan nan nan nan nan nan nan nan nan nan nan nan 33 nan nan
nan nan nan nan nan nan nan nan nan nan nan nan nan nan nan nan nan nan nan nan nan nan nan nan nan nan nan nan nan nan nan nan nan nan nan nan nan nan nan nan nan nan nan
nan nan nan nan nan nan nan nan nan nan nan nan nan nan nan nan nan nan nan nan nan nan nan nan nan nan nan nan nan nan nan nan nan nan nan nan nan nan nan nan nan nan nan
nan nan nan nan nan nan nan nan nan nan nan nan nan nan nan nan nan nan nan nan nan nan nan nan nan nan nan nan nan nan nan nan nan nan 36 nan nan nan nan nan nan nan nan
nan nan nan nan nan nan nan nan nan nan nan nan nan nan nan nan nan nan nan nan nan nan nan nan nan nan nan nan nan nan nan nan nan nan nan nan nan nan nan nan nan nan nan
nan nan nan nan nan nan nan nan nan nan 28 nan nan nan nan nan nan nan nan nan nan nan nan nan nan nan nan nan nan nan nan nan nan nan nan nan nan nan nan nan nan nan nan
nan nan nan nan nan nan nan nan nan nan 23 26 nan nan nan nan nan nan nan nan nan nan nan nan nan nan nan nan nan nan nan nan nan nan nan nan nan nan nan nan nan nan nan
nan nan nan nan nan nan nan nan nan nan nan nan nan nan nan nan nan nan nan nan nan nan nan nan nan nan nan nan nan nan nan nan nan nan nan nan nan nan nan nan nan nan nan
nan nan nan nan nan nan nan nan nan nan nan nan nan nan nan nan nan nan nan nan nan nan nan nan nan nan nan nan nan nan nan nan nan nan nan nan nan nan nan nan nan nan nan
nan nan nan nan nan nan nan nan nan nan nan nan nan nan nan nan nan nan nan nan nan nan nan nan nan nan nan nan nan nan nan nan nan nan nan nan nan nan nan nan nan nan nan
nan nan nan nan nan nan nan nan nan nan nan nan nan nan nan nan nan nan nan nan nan nan nan nan nan nan nan nan nan nan nan nan nan nan nan nan nan nan nan nan nan nan nan
Wind_Direction
269 271 277 284 273 281 290 291 301 302 308 320 324 328 334 334 334 329 318 317 323 318 323 327 335 319 307 334 306 273 269 nan nan nan nan 258 267 272 276 277 280 282 nan
251 255 257 260 261 276 280 287 289 292 295 305 312 316 320 327 332 333 331 336 337 317 312 317 324 317 321 324 326 nan nan nan nan nan nan 268 273 264 272 271 nan nan nan
235 244 250 253 271 275 280 272 273 280 287 290 298 302 304 315 313 316 318 333 332 334 333 309 309 314 321 323 311 317 312 307 315 305 286 271 267 269 269 273 nan nan nan
237 236 237 239 232 231 231 230 259 273 277 281 280 279 284 295 300 306 310 325 315 314 314 317 311 317 306 306 311 316 314 310 309 302 286 280 276 275 278 281 278 nan nan
237 241 239 244 248 244 240 232 220 243 258 270 263 267 272 282 285 291 296 304 308 313 313 317 313 323 336 316 287 298 305 302 293 295 291 289 288 282 280 275 nan nan nan
232 246 239 244 248 252 253 244 229 nan 198 246 253 256 257 259 276 296 299 301 305 308 304 309 311 320 328 344 336 305 299 300 303 292 288 284 289 nan nan nan nan nan nan
231 240 243 244 256 255 254 254 255 235 190 222 238 247 251 257 265 288 303 286 300 311 310 302 304 309 327 318 335 324 314 305 294 297 289 289 290 299 nan nan nan nan nan
244 227 nan nan nan nan nan nan nan nan nan 213 228 244 256 256 264 267 275 272 280 294 300 310 310 310 312 312 312 310 307 301 303 296 296 297 295 300 302 299 294 nan nan
221 225 253 255 nan nan nan nan nan nan nan 218 232 218 228 241 257 264 259 264 270 280 282 292 300 305 307 319 307 308 308 304 nan nan nan nan 301 301 299 289 nan nan nan
nan nan 244 266 289 nan nan nan nan 280 251 252 258 224 217 227 239 250 257 259 263 267 274 288 301 305 310 309 305 309 309 302 nan nan nan nan nan nan nan 296 nan nan nan
nan nan nan nan nan nan nan 274 253 246 256 247 nan 272 274 262 265 269 248 241 248 256 265 268 275 283 296 296 298 302 307 300 297 296 nan nan nan nan nan nan nan nan nan
nan nan nan nan nan nan nan nan nan nan nan 255 267 269 286 nan nan nan 240 257 245 251 249 249 264 272 272 279 278 296 288 286 288 nan nan nan nan nan nan nan nan nan nan
nan nan nan nan nan nan nan nan nan nan nan nan nan nan nan nan nan nan 262 259 253 251 243 249 261 280 273 270 272 281 281 285 nan 298 nan nan nan nan nan nan nan nan nan
nan nan nan nan nan nan nan nan nan nan nan nan nan nan nan nan nan nan nan nan nan nan nan nan nan nan nan nan nan nan nan nan nan nan nan nan nan nan nan 295 nan nan nan
nan nan nan nan nan nan nan nan nan nan nan nan nan nan nan nan nan nan nan nan nan nan nan nan nan nan nan nan nan nan nan nan nan nan nan nan nan nan nan nan 267 nan nan
nan nan nan nan nan nan nan nan nan nan nan nan nan nan nan nan nan nan nan nan nan nan nan nan nan nan nan nan nan nan nan nan nan nan nan nan nan nan nan nan 260 nan nan
nan nan nan nan nan nan nan nan nan nan nan nan nan nan nan nan nan nan nan nan nan nan nan nan nan nan nan nan nan nan nan nan nan nan nan nan nan nan nan nan nan nan nan
nan nan nan nan nan nan nan nan nan nan nan nan nan nan nan nan nan nan nan nan nan nan nan nan nan nan nan nan nan nan nan nan nan nan nan nan nan nan nan nan nan nan nan
nan nan nan nan nan nan nan nan nan nan nan nan nan nan nan nan nan nan nan nan nan nan nan nan nan nan nan nan nan nan nan nan nan nan 276 nan nan nan nan nan nan nan nan
nan nan nan nan nan nan nan nan nan nan nan nan nan nan nan nan nan nan nan nan nan nan nan nan nan nan nan nan nan nan nan nan nan nan nan nan nan nan nan nan nan nan nan
nan nan nan nan nan nan nan nan nan nan 271 nan nan nan nan nan nan nan nan nan nan nan nan nan nan nan nan nan nan nan nan nan nan nan nan nan nan nan nan nan nan nan nan
nan nan nan nan nan nan nan nan nan nan 296 304 nan nan nan nan nan nan nan nan nan nan nan nan nan nan nan nan nan nan nan nan nan nan nan nan nan nan nan nan nan nan nan
nan nan nan nan nan nan nan nan nan nan nan nan nan nan nan nan nan nan nan nan nan nan nan nan nan nan nan nan nan nan nan nan nan nan nan nan nan nan nan nan nan nan nan
nan nan nan nan nan nan nan nan nan nan nan nan nan nan nan nan nan nan nan nan nan nan nan nan nan nan nan nan nan nan nan nan nan nan nan nan nan nan nan nan nan nan nan
nan nan nan nan nan nan nan nan nan nan nan nan nan nan nan nan nan nan nan nan nan nan nan nan nan nan nan nan nan nan nan nan nan nan nan nan nan nan nan nan nan nan nan
nan nan nan nan nan nan nan nan nan nan nan nan nan nan nan nan nan nan nan nan nan nan nan nan nan nan nan nan nan nan nan nan nan nan nan nan nan nan nan nan nan nan nan